Tiempo cada hora Muniz Freire

Hoy, 30 Octubre, Viernes

Tiempo Temperatura Precipitaciones Viento Presión Humedad
00:00 +23°C° 0.9 mm 1 mps 702 mmHg 95%
01:00 +23°C° 0.7 mm 1 mps 702 mmHg 95%
02:00 +23°C° 0.7 mm 1 mps 702 mmHg 95%
03:00 +23°C° 0 mm 1 mps 702 mmHg 96%
04:00 +23°C° 0.8 mm 1 mps 702 mmHg 95%
05:00 +23°C° 0.8 mm 1 mps 703 mmHg 95%
06:00 +23°C° 0.8 mm 1 mps 703 mmHg 95%
07:00 +23°C° 0.5 mm 1 mps 704 mmHg 93%
08:00 +24°C° 0.5 mm 2 mps 704 mmHg 91%
09:00 +24°C° 0.5 mm 2 mps 705 mmHg 89%
10:00 +26°C° 0.2 mm 2 mps 704 mmHg 83%
11:00 +27°C° 0.2 mm 2 mps 704 mmHg 78%
12:00 +28°C° 0.2 mm 2 mps 704 mmHg 72%
13:00 +27°C° 1 mm 2 mps 703 mmHg 78%
14:00 +26°C° 1 mm 1 mps 703 mmHg 84%
15:00 +25°C° 1 mm 1 mps 702 mmHg 90%
16:00 +25°C° 0.5 mm 1 mps 702 mmHg 91%
17:00 +22°C° 0.5 mm 0 mps 702 mmHg 93%
18:00 +21°C° 0.5 mm 0 mps 702 mmHg 95%
19:00 +21°C° 0.9 mm 0 mps 703 mmHg 95%
20:00 +21°C° 0.9 mm 0 mps 703 mmHg 95%
21:00 +21°C° 0.9 mm 0 mps 703 mmHg 95%
22:00 +23°C° 1.3 mm 1 mps 703 mmHg 96%
23:00 +22°C° 1.3 mm 1 mps 703 mmHg 96%

Mañana, 31 Octubre, Sábado

Tiempo Temperatura Precipitaciones Viento Presión Humedad
00:00 +22°C° 1.3 mm 1 mps 703 mmHg 97%
01:00 +22°C° 1.1 mm 1 mps 702 mmHg 97%
02:00 +22°C° 1.1 mm 1 mps 702 mmHg 97%
03:00 +21°C° 1.1 mm 1 mps 702 mmHg 97%
04:00 +21°C° 6.7 mm 1 mps 702 mmHg 97%
05:00 +21°C° 6.7 mm 1 mps 703 mmHg 98%
06:00 +19°C° 6.7 mm 0 mps 703 mmHg 98%
07:00 +19°C° 3.4 mm 0 mps 703 mmHg 98%
08:00 +19°C° 3.4 mm 0 mps 704 mmHg 98%
09:00 +19°C° 3.4 mm 0 mps 704 mmHg 97%
10:00 +19°C° 0.8 mm 0 mps 704 mmHg 97%
11:00 +19°C° 0.8 mm 0 mps 704 mmHg 97%
12:00 +19°C° 0.8 mm 0 mps 703 mmHg 96%
13:00 +19°C° 0.3 mm 0 mps 703 mmHg 96%
14:00 +21°C° 0.3 mm 1 mps 703 mmHg 97%
15:00 +21°C° 0.3 mm 1 mps 702 mmHg 97%
16:00 +21°C° 0.3 mm 1 mps 702 mmHg 97%
17:00 +20°C° 0.3 mm 1 mps 703 mmHg 98%
18:00 +20°C° 0.3 mm 1 mps 703 mmHg 98%
19:00 +20°C° 0.3 mm 1 mps 703 mmHg 98%
20:00 +20°C° 0.3 mm 1 mps 703 mmHg 98%
21:00 +20°C° 0.3 mm 1 mps 703 mmHg 98%
22:00 +20°C° 0.1 mm 1 mps 703 mmHg 98%
23:00 +19°C° 0.1 mm 1 mps 703 mmHg 98%

Pasado mañana, 1 Noviembre, Domingo

Tiempo Temperatura Precipitaciones Viento Presión Humedad
00:00 +19°C° 0.1 mm 1 mps 703 mmHg 98%
01:00 +19°C° 0.1 mm 1 mps 702 mmHg 98%
02:00 +19°C° 0.1 mm 1 mps 702 mmHg 98%
03:00 +19°C° 0.1 mm 1 mps 702 mmHg 98%
04:00 +19°C° 0 mm 1 mps 702 mmHg 97%
05:00 +19°C° 0 mm 1 mps 702 mmHg 97%
06:00 +19°C° 0 mm 1 mps 702 mmHg 97%
07:00 +19°C° 0 mm 1 mps 702 mmHg 96%
08:00 +20°C° 0 mm 1 mps 702 mmHg 96%
09:00 +20°C° 0 mm 1 mps 703 mmHg 95%
10:00 +20°C° 0.1 mm 1 mps 702 mmHg 94%
11:00 +21°C° 0.1 mm 1 mps 702 mmHg 93%
12:00 +21°C° 0.1 mm 1 mps 702 mmHg 91%
13:00 +21°C° 0.2 mm 1 mps 702 mmHg 93%
14:00 +20°C° 0.2 mm 1 mps 701 mmHg 94%
15:00 +20°C° 0.2 mm 1 mps 701 mmHg 95%
16:00 +20°C° 0.3 mm 1 mps 701 mmHg 96%
17:00 +19°C° 0.3 mm 1 mps 701 mmHg 97%
18:00 +19°C° 0.3 mm 1 mps 701 mmHg 98%
19:00 +19°C° 0.9 mm 1 mps 702 mmHg 98%
20:00 +19°C° 0.9 mm 1 mps 702 mmHg 98%
21:00 +18°C° 0.9 mm 1 mps 702 mmHg 98%
22:00 +17°C° 1.4 mm 2 mps 702 mmHg 98%
23:00 +17°C° 1.4 mm 2 mps 702 mmHg 98%

2 Noviembre, Lunes

Tiempo Temperatura Precipitaciones Viento Presión Humedad
00:00 +17°C° 1.4 mm 2 mps 702 mmHg 98%
01:00 +16°C° 1 mm 2 mps 702 mmHg 98%
02:00 +16°C° 1 mm 2 mps 702 mmHg 97%
03:00 +15°C° 1 mm 2 mps 701 mmHg 97%
04:00 +15°C° 0.1 mm 2 mps 702 mmHg 97%
05:00 +15°C° 0.1 mm 2 mps 702 mmHg 97%
06:00 +15°C° 0.1 mm 2 mps 702 mmHg 97%
07:00 +15°C° 0 mm 2 mps 703 mmHg 95%
08:00 +16°C° 0 mm 2 mps 703 mmHg 94%
09:00 +16°C° 0 mm 2 mps 703 mmHg 92%
10:00 +17°C° 0.1 mm 2 mps 703 mmHg 90%
11:00 +18°C° 0.1 mm 2 mps 703 mmHg 87%
12:00 +18°C° 0.1 mm 2 mps 703 mmHg 85%
13:00 +18°C° 0.1 mm 2 mps 703 mmHg 85%
14:00 +18°C° 0.1 mm 2 mps 703 mmHg 85%
15:00 +19°C° 0.1 mm 2 mps 702 mmHg 85%
16:00 +18°C° 0.1 mm 2 mps 702 mmHg 88%
17:00 +17°C° 0.1 mm 2 mps 703 mmHg 91%
18:00 +16°C° 0.1 mm 1 mps 703 mmHg 95%
19:00 +16°C° 0.1 mm 1 mps 703 mmHg 95%
20:00 +16°C° 0.1 mm 1 mps 703 mmHg 95%
21:00 +15°C° 0.1 mm 1 mps 704 mmHg 95%
22:00 +15°C° 0 mm 1 mps 704 mmHg 95%
23:00 +15°C° 0 mm 1 mps 703 mmHg 96%

3 Noviembre, Martes

Tiempo Temperatura Precipitaciones Viento Presión Humedad
00:00 +14°C° 0 mm 1 mps 703 mmHg 96%
01:00 +14°C° 0 mm 1 mps 703 mmHg 96%
02:00 +13°C° 0 mm 0 mps 703 mmHg 96%
03:00 +13°C° 0 mm 0 mps 703 mmHg 95%
04:00 +13°C° 0 mm 0 mps 703 mmHg 95%
05:00 +14°C° 0 mm 0 mps 704 mmHg 95%
06:00 +14°C° 0 mm 0 mps 704 mmHg 94%
07:00 +15°C° 0 mm 0 mps 704 mmHg 93%
08:00 +16°C° 0 mm 0 mps 705 mmHg 91%
09:00 +19°C° 0 mm 1 mps 705 mmHg 89%
10:00 +19°C° 0.1 mm 1 mps 705 mmHg 86%
11:00 +20°C° 0.1 mm 1 mps 705 mmHg 84%
12:00 +21°C° 0.1 mm 1 mps 705 mmHg 81%
13:00 +20°C° 0.2 mm 2 mps 705 mmHg 82%
14:00 +20°C° 0.2 mm 2 mps 705 mmHg 84%
15:00 +20°C° 0.2 mm 2 mps 704 mmHg 85%
16:00 +19°C° 0.2 mm 2 mps 704 mmHg 88%
17:00 +19°C° 0.2 mm 1 mps 704 mmHg 91%
18:00 +18°C° 0.2 mm 1 mps 704 mmHg 94%
19:00 +18°C° 0.1 mm 1 mps 705 mmHg 95%
20:00 +16°C° 0.1 mm 1 mps 705 mmHg 95%
21:00 +16°C° 0.1 mm 1 mps 705 mmHg 95%
22:00 +16°C° 0.1 mm 1 mps 705 mmHg 95%
23:00 +16°C° 0.1 mm 1 mps 705 mmHg 95%

4 Noviembre, Miércoles

Tiempo Temperatura Precipitaciones Viento Presión Humedad
00:00 +15°C° 0.1 mm 0 mps 705 mmHg 95%
01:00 +14°C° 0 mm 0 mps 704 mmHg 95%
02:00 +14°C° 0 mm 0 mps 704 mmHg 95%
03:00 +14°C° 0 mm 0 mps 704 mmHg 95%
04:00 +14°C° 0 mm 0 mps 704 mmHg 95%
05:00 +15°C° 0 mm 0 mps 705 mmHg 94%
06:00 +15°C° 0 mm 0 mps 705 mmHg 94%
07:00 +15°C° 0 mm 0 mps 705 mmHg 91%
08:00 +16°C° 0 mm 0 mps 706 mmHg 89%
09:00 +17°C° 0 mm 0 mps 706 mmHg 86%
10:00 +20°C° 0.1 mm 1 mps 706 mmHg 84%
11:00 +21°C° 0.1 mm 1 mps 706 mmHg 81%
12:00 +22°C° 0.1 mm 1 mps 706 mmHg 78%
13:00 +21°C° 0.6 mm 1 mps 705 mmHg 83%
14:00 +21°C° 0.6 mm 1 mps 705 mmHg 87%
15:00 +20°C° 0.6 mm 1 mps 704 mmHg 92%
16:00 +19°C° 0.9 mm 1 mps 704 mmHg 94%
17:00 +19°C° 0.9 mm 1 mps 704 mmHg 96%
18:00 +18°C° 0.9 mm 1 mps 704 mmHg 98%
19:00 +18°C° 0.4 mm 1 mps 705 mmHg 98%
20:00 +16°C° 0.4 mm 1 mps 705 mmHg 98%
21:00 +16°C° 0.4 mm 1 mps 705 mmHg 98%
22:00 +16°C° 0.1 mm 1 mps 705 mmHg 98%
23:00 +16°C° 0.1 mm 1 mps 705 mmHg 98%
Mostrar más

Necesitamos Su Consentimiento

Meteoprog y nuestros Proveedores de Servicios pueden almacenar y acceder a sus datos personales como cookies, identificadores de dispositivo u otras tecnologías similares de su dispositivo y procesar dichos datos para personalizar contenido y anuncios, además de ofrecer funciones de redes sociales y analizar el tráfico.

  • Almacenar y/o acceder a información en su dispositivo

    Se puede almacenar o acceder a cookies, identificadores de dispositivo u otra información de su dispositivo para los fines anteriormente indicados.

  • Anuncios y contenido personalizados, medición de anuncios y contenido, percepciones del público, y desarrollo de productos

    Los anuncios y el contenido pueden personalizarse en base a su perfil. Se pueden añadir más datos para personalizar mejor los anuncios y contenidos. Se puede medir el rendimiento de los anuncios y contenidos. Se puede obtener la percepción sobre el público que ha visto los anuncios y contenidos. Dichos datos pueden usarse para desarrollar o mejorar la experiencia del usuario, sistemas y software.

Al hacer clic en ‘Estoy De Acuerdo’ usted permitirá el uso de las cookies, identificadores de dispositivo, balizas web u otras tecnologías similares indicadas. Su configuración puede cambiarse desde el navegador de su dispositivo.

Para ciertos fines, los intereses legítimos pueden ser considerados por encima del consentimiento. Puede leer más sobre ello en nuestra Política de Privacidad y Cookies.